Location: Unspecified
(41.1850°N, 73.2650°W)
Time: 21:45:47
(UTC+00:00)

Cosmos 1812 Rocket - Visible Passes

Search period start: 16 March 2026 00:00
Search period end: 26 March 2026 00:00
Orbit: 598 x 625 km, 82.5° (Epoch: 16 March)

Date Brightness Start Highest point End Pass type
(mag) Time Alt. Az. Time Alt. Az. Time Alt. Az.
16 Mar 5.9 23:46:15 10° NNW 23:49:55 28° W 23:53:34 10° SSW visible
18 Mar 6.8 00:02:03 10° NW 00:04:41 16° W 00:07:19 10° SW visible
21 Mar 7.2 10:03:15 10° ESE 10:04:55 12° E 10:06:34 10° ENE visible
22 Mar 6.6 10:16:24 10° SE 10:19:39 21° E 10:22:54 10° NE visible
22 Mar 7.5 23:40:42 10° WNW 23:41:42 11° W 23:42:43 10° W visible
